Terminal Aerodrome Forecast
Issued by NWS

Home | Current Version | Previous Version | Text Only | Print | Product List | Glossary On
Versions: 1 2 3 4 5 6 7 8 9 10 11 12 13 14 15 16 17 18 19
833
FTUS42 KMLB 231306 AAA
TAFLEE
TAF AMD
KLEE 231306Z 2313/2412 18010KT P6SM VCSH BKN012
      TEMPO 2313/2316 3SM SHRA
     FM231700 21008KT P6SM VCTS SCT030CB BKN050
      TEMPO 2317/2321 2SM TSRA BKN025CB
     FM240000 20006KT P6SM VCSH SCT030 BKN080
     FM240800 25004KT 5SM BR BKN006=

USA.gov is the U.S. government's official web portal to all federal, state and local government web resources and services.